map of QIE home
QIE - Airport
Location
City:  Istres, Provence-Alpes-Côte d'Azur, France
Name:Istres-Le Tubé AB
ICAO:LFMI
IATA:QIE

Details
Type:Airport (Aerodrome, Airfield)
Use:Military
Latitude:43°31'21"N (43.522394)
Longitude:4°55'27"E (4.924236)
Elevation:82 ft (25 m)
Variation:1.39°E (WMM2015 magnetic declination)
0.12° annual change
Runways:1
Longest:12303 × 197 ft (3750 × 60 m)

Time
Time Zone:UTC+1 (DST+2)
Local Time:

Weather
METAR:LFMI 231330Z AUTO 15012KT CAVOK 17/10 Q1014 NOSIG
TAF:LFMI 230800Z 2309/2409 VRB03KT CAVOK
TEMPO 2312/2321 16010KT PROB30
TEMPO 2320/2403 2000 BR BKN008
BECMG 2401/2403 33010KT

Related Locations
Nearby:
Farthest:CHT: 12368 mi / 19904 km
Waitangi [Tuuta], CIT, NZ

Find:

   beyond  
but within

Other Information
Maps:
NOTAMs:
Links:
Sources:

  
flag of France
flag of Provence-Alpes-Côte d'Azur
  

Airport Diagram

Airport diagram for QIE

Airport diagram (OBSOLETE) from NGA

Sectional Chart

Flight Planning
at skyvector.com

Satellite Image

Google Maps Satellite view

 

Copyright © 2004-2017 Karl L. Swartz. All rights reserved.
The Great Circle Mapper name and logo are trademarks of the Great Circle Mapper.
All other trademarks mentioned herein belong to their respective owners.
Please see credits for attibutions and further copyright information.

  Follow gcmap on Facebook Follow gcmap on Twitter Follow gcmap on Google+ GCmap on LinkedIn

hCard Microformat

Geo Microformat